Location: Boitzum
(52.1496°N, 9.6943°E)
Time: 23:23:17
(UTC+00:00)

GEOS 3 Rocket - Pass Details

Date: 13 January 2026
Orbit: 768 x 845 km, 115.0° (Epoch: 9 February)

Event Time Altitude Azimuth Distance (km) Brightness Sun altitude
Rises 05:20:28 0° 163° (SSE) 3,304 7.2 -18.2°
Reaches altitude 10° 05:22:55 10° 173° (S) 2,389 6.3 -17.8°
Maximum altitude 05:27:39 35° 238° (WSW) 1,304 4.3 -17.1°
Enters shadow 05:29:29 27° 277° (W) 1,529 4.4 -16.9°
